QPF
0.00 0.00 0.00 0.00 0.00 0.00 0.00 0.00 0.00 0.00 0.00 0.00 0.00 0.00 0.00 0.00 0.00 0.00 0.00 0.00 0.00 0.00 0.00 0.00 0.00 0.00 0.00 0.00 0.00 0.00 0.00 0.00 0.00 0.00 0.00 0.00 0.00 0.00 0.00 0.00 0.00 0.00 0.00 0.00
0.00 0.00 0.00 0.00 0.00 0.00 0.00 0.00 0.00 0.00 0.00 0.00 0.00 0.00 0.00 0.00 0.00 0.00 0.00 0.00 0.00 0.00 0.00 0.00 0.00 0.00 0.00 0.00 0.00 0.00 0.00 0.00 0.00 0.00 0.00 0.00 0.00 0.00 0.00 0.00 0.00 0.00 0.00 0.00
0.00 0.00 0.00 0.00 0.00 0.00 0.00 0.00 0.00 0.00 0.00 0.00 0.00 0.00 0.00 0.00 0.00 0.00 0.00 0.00 0.00 0.00 0.00 0.00 0.00 0.00 0.00 0.00 0.00 0.00 0.00 0.00 0.00 0.00 0.00 0.00 0.00 0.00 0.00 0.00 0.00 0.00 0.00 0.00
0.00 0.00 0.00 0.00 0.00 0.00 0.00 0.00 0.00 0.00 0.00 0.00 0.00 0.00 0.00 0.00 0.00 0.00 0.00 0.00 0.00 0.00 0.00 0.00 0.00 0.00 0.00 0.00 0.00 0.00 0.00 0.00 0.00 0.00 0.00 0.00 0.00 0.00 0.00 0.00 0.00 0.00 0.00 0.00
0.00 0.00 0.00 0.00 0.00 0.00 0.00 0.00 0.00 0.00 0.00 0.00 0.00 0.00 0.00 0.00 0.00 0.00 0.00 0.00 0.00 0.00 0.00 0.00 0.00 0.00 0.00 0.00 0.00 0.00 0.00 0.00 0.00 0.00 0.00 0.00 0.00 0.00 0.00 0.00 0.00 0.00 0.00 0.00
0.00 0.00 0.00 0.00 0.00 0.00 0.00 0.00 0.00 0.00 0.00 0.00 0.00 0.00 0.00 0.00 0.00 0.00 0.00 0.00 0.00 0.00 0.00 0.00 0.00 0.00 0.00 0.00 0.00 0.00 0.00 0.00 0.00 0.00 0.00 0.00 0.00 0.00 0.00 0.00 0.00 0.00 0.00 0.00
0.00 0.00 0.00 0.00 0.00 0.00 0.00 0.00 0.00 0.00 0.00 0.00 0.00 0.00 0.00 0.00 0.00 0.00 0.00 0.00 0.00 0.00 0.00 0.00 0.00 0.00 0.00 0.00 0.00 0.00 0.00 0.00 0.00 0.00 0.00 0.00 0.00 0.00 0.00 0.00 0.00 0.00 0.00 0.00
0.00 0.00 0.00 0.00 0.00 0.00 0.00 0.00 0.00 0.00 0.00 0.00 0.00 0.00 0.00 0.00 0.00 0.00 0.00 0.00 0.00 0.00 0.00 0.00 0.00 0.00 0.00 0.00 0.00 0.00 0.00 0.00 0.00 0.00 0.00 0.00 0.00 0.00 0.00 0.00 0.00 0.00 0.00 0.00
0.00 0.00 0.00 0.00 0.00 0.00 0.00 0.00 0.00 0.00 0.00 0.00 0.00 0.00 0.00 0.00 0.00 0.00 0.00 0.00 0.00 0.00 0.00 0.00 0.00 0.00 0.00 0.00 0.00 0.00 0.00 0.00 0.00 0.00 0.00 0.00 0.00 0.00 0.00 0.00 0.00 0.00 0.00 0.00
0.00 0.00 0.00 0.00 0.00 0.00 0.00 0.00 0.00 0.00 0.00 0.00 0.00 0.00 0.00 0.00 0.00 0.00 0.00 0.00 0.00 0.00 0.00 0.00 0.00 0.00 0.00 0.00 0.00 0.00 0.00 0.00 0.00 0.00 0.00 0.00 0.00 0.00 0.00 0.00 0.00 0.00 0.00 0.00
0.00 0.00 0.00 0.00 0.00 0.00 0.00 0.00 0.00 0.00 0.00 0.00 0.00 0.00 0.00 0.00 0.00 0.00 0.00 0.00 0.00 0.00 0.00 0.00 0.00 0.00 0.00 0.00 0.00 0.00 0.00 0.00 0.00 0.00 0.00 0.00 0.00 0.00 0.00 0.00 0.00 0.00 0.00 0.00
0.00 0.00 0.00 0.00 0.00 0.00 0.00 0.00 0.00 0.00 0.00 0.00 0.00 0.00 0.00 0.00 0.00 0.00 0.00 0.00 0.00 0.00 0.00 0.00 0.00 0.00 0.00 0.00 0.00 0.00 0.00 0.00 0.00 0.00 0.00 0.00 0.00 0.00 0.00 0.00 0.00 0.00 0.00 0.00
0.00 0.00 0.00 0.00 0.00 0.00 0.00 0.00 0.00 0.00 0.00 0.00 0.00 0.00 0.00 0.00 0.00 0.00 0.00 0.00 0.00 0.00 0.00 0.00 0.00 0.00 0.00 0.00 0.00 0.00 0.00 0.00 0.00 0.00 0.00 0.00 0.00 0.00 0.00 0.00 0.00 0.00 0.00 0.00
0.00 0.00 0.00 0.00 0.00 0.00 0.00 0.00 0.00 0.00 0.00 0.00 0.00 0.00 0.00 0.00 0.00 0.00 0.00 0.00 0.00 0.00 0.00 0.00 0.00 0.00 0.00 0.00 0.00 0.00 0.00 0.00 0.00 0.00 0.00 0.00 0.00 0.00 0.00 0.00 0.00 0.00 0.00 0.00
0.00 0.00 0.00 0.00 0.00 0.00 0.00 0.00 0.00 0.00 0.00 0.00 0.00 0.00 0.00 0.00 0.00 0.00 0.00 0.00 0.00 0.00 0.00 0.00 0.00 0.00 0.00 0.00 0.00 0.00 0.00 0.00 0.00 0.00 0.00 0.00 0.00 0.00 0.00 0.00 0.00 0.00 0.00 0.00
0.00 0.00 0.00 0.00 0.00 0.00 0.00 0.00 0.00 0.00 0.00 0.00 0.00 0.00 0.00 0.00 0.00 0.00 0.00 0.00 0.00 0.00 0.00 0.00 0.00 0.00 0.00 0.00 0.00 0.00 0.00 0.00 0.00 0.00 0.00 0.00 0.00 0.00 0.00 0.00 0.00 0.00 0.00 0.00
0.00 0.00 0.00 0.00 0.00 0.00 0.00 0.00 0.00 0.00 0.00 0.00 0.00 0.00 0.00 0.00 0.00 0.00 0.00 0.00 0.00 0.00 0.00 0.00 0.00 0.00 0.00 0.00 0.00 0.00 0.00 0.00 0.00 0.00 0.00 0.00 0.00 0.00 0.00 0.00 0.00 0.00 0.00 0.00
0.00 0.00 0.00 0.00 0.00 0.00 0.00 0.00 0.00 0.00 0.00 0.00 0.00 0.00 0.00 0.00 0.00 0.00 0.00 0.00 0.00 0.00 0.00 0.00 0.00 0.00 0.00 0.00 0.00 0.00 0.00 0.00 0.00 0.00 0.00 0.00 0.00 0.00 0.00 0.00 0.00 0.00 0.00 0.00
0.00 0.00 0.00 0.00 0.00 0.00 0.00 0.00 0.00 0.00 0.00 0.00 0.00 0.00 0.00 0.00 0.00 0.00 0.00 0.00 0.00 0.00 0.00 0.00 0.00 0.00 0.00 0.00 0.00 0.00 0.00 0.00 0.00 0.00 0.00 0.00 0.00 0.00 0.00 0.00 0.00 0.00 0.00 0.00
0.00 0.00 0.00 0.00 0.00 0.00 0.00 0.00 0.00 0.00 0.00 0.00 0.00 0.00 0.00 0.00 0.00 0.00 0.00 0.00 0.00 0.00 0.00 0.00 0.00 0.00 0.00 0.00 0.00 0.00 0.00 0.00 0.00 0.00 0.00 0.00 0.00 0.00 0.00 0.00 0.00 0.00 0.00 0.00
0.00 0.00 0.00 0.00 0.00 0.00 0.00 0.00 0.00 0.00 0.00 0.00 0.00 0.00 0.00 0.00 0.00 0.00 0.00 0.00 0.00 0.00 0.00 0.00 0.00 0.00 0.00 0.00 0.00 0.00 0.00 0.00 0.00 0.00 0.00 0.00 0.00 0.00 0.00 0.00 0.00 0.00 0.00 0.00
0.00 0.00 0.00 0.00 0.00 0.00 0.00 0.00 0.00 0.00 0.00 0.00 0.00 0.00 0.00 0.00 0.00 0.00 0.00 0.00 0.00 0.00 0.00 0.00 0.00 0.00 0.00 0.00 0.00 0.00 0.00 0.00 0.00 0.00 0.00 0.00 0.00 0.00 0.00 0.00 0.00 0.00 0.00 0.00
0.00 0.00 0.00 0.00 0.00 0.00 0.00 0.00 0.00 0.00 0.00 0.00 0.00 0.00 0.00 0.00 0.00 0.00 0.00 0.00 0.00 0.00 0.00 0.00 0.00 0.00 0.00 0.00 0.00 0.00 0.00 0.00 0.00 0.00 0.00 0.00 0.00 0.00 0.00 0.00 0.00 0.00 0.00 0.00
0.00 0.00 0.00 0.00 0.00 0.00 0.00 0.00 0.00 0.00 0.00 0.00 0.00 0.00 0.00 0.00 0.00 0.00 0.00 0.00 0.00 0.00 0.00 0.00 0.00 0.00 0.00 0.00 0.00 0.00 0.00 0.00 0.00 0.00 0.00 0.00 0.00 0.00 0.00 0.00 0.00 0.00 0.00 0.00
0.00 0.00 0.00 0.00 0.00 0.00 0.00 0.00 0.00 0.00 0.00 0.00 0.00 0.00 0.00 0.00 0.00 0.00 0.00 0.00 0.00 0.00 0.00 0.00 0.00 0.00 0.00 0.00 0.00 0.00 0.00 0.00 0.00 0.00 0.00 0.00 0.00 0.00 0.00 0.00 0.00 0.00 0.00 0.00
0.00 0.00 0.00 0.00 0.00 0.00 0.00 0.00 0.00 0.00 0.00 0.00 0.00 0.00 0.00 0.00 0.00 0.00 0.00 0.00 0.00 0.00 0.00 0.00 0.00 0.00 0.00 0.00 0.00 0.00 0.00 0.00 0.00 0.00 0.00 0.00 0.00 0.00 0.00 0.00 0.00 0.00 0.00 0.00
MSLP
1019.03 1018.62 1018.23 1018.47 1018.70 1019.01 1019.05 1019.07 1018.29 1017.94 1018.57 1019.13 1018.14 1017.59 1017.77 1018.62 1019.91 1020.35 1020.65 1020.77 1020.90 1021.07 1021.11 1020.85 1020.29 1019.59 1018.82 1018.25 1017.58 1016.69 1015.31 1014.54 1014.19 1013.35 1012.15 1010.59 1009.93 1009.68 1009.58 1009.66 1009.63 1009.37 1009.86 1010.02
1019.00 1018.18 1018.49 1019.05 1019.10 1019.19 1018.90 1018.70 1018.09 1018.00 1018.38 1018.85 1017.91 1016.91 1017.35 1018.54 1019.47 1020.56 1021.13 1020.90 1021.13 1021.11 1021.05 1020.68 1020.22 1019.70 1018.96 1018.36 1017.68 1016.91 1015.58 1014.75 1014.46 1013.88 1013.04 1012.24 1011.43 1010.47 1009.96 1009.78 1009.80 1009.59 1009.60 1009.75
1018.69 1018.77 1019.00 1019.31 1019.26 1019.27 1018.78 1018.69 1018.70 1019.04 1018.52 1018.32 1018.23 1016.63 1017.43 1018.46 1019.60 1020.32 1020.98 1021.61 1021.62 1021.50 1021.05 1020.70 1020.14 1019.74 1019.27 1018.58 1017.96 1017.03 1015.88 1015.06 1014.79 1014.26 1013.46 1012.35 1011.32 1010.46 1010.07 1009.70 1009.44 1009.79 1009.81 1010.23
1019.17 1019.37 1019.35 1019.55 1019.62 1019.90 1019.17 1019.23 1019.65 1019.28 1019.57 1018.46 1019.05 1017.42 1017.04 1018.19 1019.16 1020.07 1020.91 1021.57 1021.80 1021.76 1021.52 1021.04 1020.50 1019.84 1019.33 1018.73 1018.03 1017.26 1016.11 1015.23 1014.99 1014.50 1013.45 1012.39 1011.61 1011.05 1010.48 1010.18 1009.69 1010.09 1010.41 1010.56
1019.20 1019.55 1019.69 1019.81 1019.87 1020.30 1019.58 1019.65 1019.60 1019.56 1019.83 1019.70 1018.64 1018.80 1016.43 1018.50 1019.13 1020.03 1021.02 1021.69 1022.10 1022.15 1021.82 1021.40 1020.96 1020.31 1019.60 1018.89 1018.04 1017.29 1016.23 1015.47 1015.23 1014.55 1013.86 1012.72 1011.94 1011.38 1010.64 1010.53 1010.40 1010.70 1010.64 1010.47
1019.63 1020.20 1020.33 1020.28 1020.36 1020.56 1020.22 1019.57 1019.46 1019.82 1019.66 1019.10 1018.18 1018.56 1016.48 1018.17 1019.69 1020.56 1021.60 1022.13 1022.48 1022.41 1021.96 1021.54 1021.23 1020.53 1019.69 1018.93 1018.13 1017.24 1016.44 1015.84 1015.36 1014.75 1014.03 1013.23 1012.70 1011.98 1011.31 1011.10 1011.00 1010.99 1011.14 1011.29
1019.69 1020.09 1020.68 1020.92 1020.75 1020.74 1020.25 1019.98 1019.43 1019.27 1018.90 1017.82 1018.23 1018.65 1016.99 1018.79 1020.28 1021.49 1022.33 1022.76 1022.93 1022.67 1022.26 1021.67 1021.20 1020.53 1019.77 1018.96 1018.17 1017.36 1016.68 1016.11 1015.61 1015.05 1014.34 1013.90 1013.29 1012.75 1012.32 1012.21 1012.11 1011.90 1011.99 1012.34
1020.11 1020.11 1020.87 1021.40 1021.47 1021.42 1021.45 1021.74 1021.67 1021.32 1019.58 1018.15 1018.02 1017.79 1017.54 1019.76 1021.09 1022.19 1023.07 1023.37 1022.95 1022.82 1022.53 1022.04 1021.42 1020.74 1019.92 1019.05 1018.26 1017.61 1017.00 1016.58 1016.13 1015.42 1014.84 1014.42 1013.87 1013.44 1013.30 1013.31 1013.18 1012.97 1013.24 1013.28
1020.66 1020.71 1021.28 1021.76 1021.98 1022.14 1022.21 1022.35 1023.03 1022.42 1021.32 1020.36 1017.05 1017.13 1018.69 1020.08 1021.23 1021.99 1023.02 1023.09 1023.08 1023.00 1022.73 1022.28 1021.71 1021.07 1020.35 1019.54 1018.71 1018.06 1017.60 1017.17 1016.64 1016.11 1015.60 1015.19 1014.69 1014.40 1014.21 1014.18 1013.87 1013.97 1013.95 1013.93
1021.32 1021.45 1021.27 1022.00 1022.39 1022.56 1022.35 1023.15 1023.31 1023.10 1021.65 1019.51 1016.69 1017.51 1018.32 1020.43 1021.75 1022.10 1023.03 1023.30 1023.37 1023.24 1022.90 1022.41 1021.98 1021.53 1020.86 1020.19 1019.37 1018.65 1018.17 1017.66 1017.23 1016.77 1016.34 1015.96 1015.68 1015.42 1015.30 1015.16 1014.80 1014.71 1014.82 1014.80
1021.66 1022.08 1021.74 1022.08 1022.33 1022.18 1023.03 1023.08 1023.36 1023.49 1022.85 1021.80 1019.65 1017.87 1019.68 1021.43 1022.63 1022.99 1023.51 1023.72 1023.75 1023.46 1023.08 1022.71 1022.41 1022.02 1021.46 1020.68 1019.92 1019.27 1018.75 1018.30 1017.84 1017.44 1017.07 1016.78 1016.63 1016.50 1016.31 1016.09 1015.90 1015.68 1015.63 1015.66
1021.82 1022.02 1021.53 1021.95 1022.71 1023.07 1023.09 1023.19 1023.24 1023.23 1023.04 1022.76 1022.27 1019.63 1020.46 1022.04 1023.22 1023.71 1023.91 1024.19 1024.08 1023.59 1023.34 1023.13 1022.90 1022.39 1021.73 1021.04 1020.42 1019.79 1019.32 1018.83 1018.45 1018.12 1017.80 1017.63 1017.57 1017.48 1017.35 1017.12 1016.92 1016.84 1016.82 1016.87
1021.88 1021.92 1021.74 1021.93 1023.25 1023.31 1023.43 1023.62 1023.83 1023.89 1023.89 1022.65 1022.44 1019.59 1021.12 1022.56 1023.40 1023.92 1024.39 1024.66 1024.32 1023.68 1023.76 1023.60 1023.22 1022.66 1022.05 1021.47 1020.90 1020.42 1019.94 1019.52 1019.23 1018.90 1018.57 1018.42 1018.43 1018.43 1018.41 1018.18 1018.02 1017.92 1018.03 1018.25
1021.90 1022.05 1021.99 1021.88 1022.25 1022.80 1023.49 1023.66 1023.96 1023.85 1023.69 1022.53 1021.63 1020.36 1020.97 1021.97 1023.42 1023.92 1024.63 1025.05 1024.62 1024.59 1024.39 1023.96 1023.48 1023.03 1022.49 1021.86 1021.38 1021.00 1020.56 1020.21 1019.94 1019.75 1019.49 1019.36 1019.27 1019.28 1019.25 1019.27 1019.12 1019.01 1019.36 1019.29
1022.35 1022.45 1022.49 1022.05 1022.70 1023.35 1023.12 1023.19 1023.59 1023.64 1023.00 1022.74 1021.06 1021.91 1021.16 1022.23 1023.47 1024.39 1025.08 1025.06 1024.86 1024.74 1024.54 1024.43 1023.92 1023.40 1022.90 1022.39 1022.02 1021.64 1021.33 1021.04 1020.88 1020.67 1020.47 1020.39 1020.41 1020.30 1020.17 1020.20 1020.41 1020.15 1020.21 1020.60
1022.88 1022.70 1022.94 1022.29 1022.73 1023.17 1022.74 1022.56 1023.15 1023.40 1023.29 1022.57 1021.98 1021.65 1021.17 1022.58 1023.45 1024.23 1024.75 1025.03 1025.01 1024.92 1024.68 1024.55 1024.19 1023.86 1023.42 1022.95 1022.67 1022.33 1022.18 1021.98 1021.89 1021.70 1021.48 1021.45 1021.40 1021.33 1021.31 1021.45 1021.40 1020.85 1021.33 1021.61
1022.86 1022.86 1022.92 1021.89 1021.77 1021.96 1021.66 1020.24 1021.58 1021.59 1021.71 1020.96 1020.97 1020.13 1021.06 1022.06 1022.69 1023.33 1024.14 1024.89 1025.03 1025.03 1024.96 1024.77 1024.64 1024.27 1023.72 1023.40 1023.17 1022.98 1022.90 1022.87 1022.76 1022.60 1022.59 1022.58 1022.63 1022.54 1022.50 1022.38 1021.99 1021.95 1022.64 1022.95
1022.77 1022.80 1022.57 1021.37 1020.43 1019.81 1018.36 1019.37 1019.87 1019.80 1019.29 1019.67 1019.97 1020.01 1020.45 1021.30 1022.13 1022.86 1023.83 1024.41 1024.57 1024.77 1024.84 1024.84 1024.76 1024.59 1024.11 1023.79 1023.66 1023.51 1023.45 1023.56 1023.60 1023.58 1023.55 1023.59 1023.58 1023.60 1023.54 1023.36 1023.27 1023.62 1023.75 1023.81
1022.72 1022.37 1022.05 1021.32 1019.58 1017.14 1016.92 1018.36 1018.73 1018.44 1017.06 1017.02 1018.42 1019.33 1020.44 1021.56 1022.33 1022.46 1023.21 1024.21 1024.59 1024.68 1025.02 1025.38 1025.19 1025.04 1024.63 1024.41 1024.22 1024.18 1024.25 1024.29 1024.37 1024.52 1024.56 1024.43 1024.34 1024.21 1024.22 1024.17 1024.23 1024.37 1024.46 1024.72
1022.64 1022.48 1021.83 1020.87 1018.99 1016.67 1015.47 1016.24 1017.05 1017.33 1016.40 1015.56 1017.00 1018.44 1019.75 1020.77 1020.98 1021.35 1022.27 1023.40 1024.46 1024.96 1024.92 1024.90 1024.91 1024.86 1024.83 1024.72 1024.57 1024.54 1024.72 1024.98 1025.14 1025.24 1025.19 1025.11 1024.98 1024.88 1024.84 1024.99 1025.12 1025.13 1025.16 1025.28
1022.07 1022.02 1021.22 1020.23 1018.34 1015.68 1014.68 1015.76 1016.74 1016.51 1015.43 1014.84 1016.10 1017.37 1018.79 1019.21 1019.13 1019.86 1021.17 1022.61 1023.46 1024.22 1024.59 1024.71 1024.75 1024.65 1024.88 1025.15 1025.04 1025.09 1025.25 1025.41 1025.58 1025.54 1025.43 1025.46 1025.52 1025.54 1025.55 1025.48 1025.50 1025.55 1025.69 1025.97
1019.72 1020.07 1019.78 1019.43 1017.70 1015.28 1014.68 1016.15 1015.88 1013.89 1014.37 1014.62 1015.66 1016.62 1017.56 1017.96 1018.85 1019.98 1020.58 1021.61 1022.64 1023.43 1024.20 1024.41 1024.56 1024.64 1024.76 1024.89 1025.05 1025.21 1025.40 1025.71 1025.80 1025.82 1025.92 1026.02 1026.05 1025.96 1026.02 1026.08 1026.36 1026.38 1026.40 1026.56
1018.52 1017.01 1016.78 1016.44 1013.83 1012.52 1013.29 1012.76 1013.03 1013.68 1013.90 1014.72 1014.92 1015.48 1016.30 1017.35 1018.04 1018.96 1019.82 1020.75 1021.56 1022.25 1022.99 1023.66 1024.08 1024.52 1024.85 1025.06 1025.19 1025.28 1025.50 1025.87 1026.05 1026.22 1026.43 1026.56 1026.64 1026.70 1026.79 1026.80 1026.89 1026.83 1026.88 1026.75
1016.62 1016.29 1015.95 1014.84 1011.91 1011.92 1012.03 1012.32 1012.99 1013.77 1013.76 1013.76 1014.07 1014.87 1015.72 1015.96 1017.20 1018.14 1018.98 1019.80 1020.61 1021.58 1022.40 1023.16 1023.84 1024.17 1024.45 1024.77 1025.03 1025.22 1025.71 1026.08 1026.36 1026.42 1026.51 1026.66 1026.64 1026.72 1026.81 1026.81 1026.79 1026.61 1026.66 1026.75
1015.47 1015.59 1014.41 1013.12 1011.17 1011.10 1010.93 1011.03 1011.49 1012.77 1013.59 1013.84 1014.06 1014.50 1014.93 1015.84 1016.75 1017.49 1018.49 1019.36 1020.24 1021.16 1021.99 1022.69 1023.18 1023.60 1023.88 1024.39 1024.75 1025.12 1025.56 1026.08 1026.39 1026.59 1026.74 1026.75 1026.70 1026.61 1026.50 1026.46 1026.43 1026.53 1026.72 1026.78
1013.70 1012.48 1012.29 1010.25 1009.34 1009.53 1009.42 1009.64 1010.39 1011.46 1012.15 1013.05 1013.50 1014.29 1014.94 1015.42 1016.07 1017.04 1017.78 1018.59 1019.43 1020.22 1021.20 1022.11 1022.71 1023.29 1023.62 1024.03 1024.34 1024.76 1025.05 1025.39 1025.69 1026.08 1026.23 1026.15 1026.13 1026.18 1026.22 1026.36 1026.63 1026.73 1026.65 1026.68
Thickness
5549 5559 5564 5546 5531 5519 5509 5497 5503 5508 5487 5459 5460 5448 5434 5407 5373 5361 5355 5347 5337 5329 5322 5317 5315 5317 5322 5326 5335 5349 5368 5388 5405 5426 5451 5482 5500 5510 5521 5528 5537 5547 5552 5558
5551 5565 5544 5525 5517 5510 5510 5507 5512 5499 5482 5460 5454 5446 5426 5394 5374 5352 5342 5339 5329 5323 5317 5314 5312 5313 5313 5315 5322 5336 5356 5372 5388 5408 5430 5451 5474 5492 5505 5516 5522 5530 5545 5549
5556 5544 5525 5517 5517 5507 5514 5504 5497 5475 5470 5457 5441 5452 5408 5384 5364 5353 5345 5328 5321 5315 5312 5308 5309 5307 5306 5310 5318 5333 5348 5362 5373 5394 5416 5440 5463 5482 5495 5508 5517 5522 5533 5538
5539 5522 5520 5517 5509 5491 5493 5491 5469 5463 5441 5470 5421 5452 5429 5391 5370 5355 5343 5325 5314 5307 5304 5303 5301 5304 5305 5310 5318 5328 5341 5354 5364 5384 5409 5431 5452 5468 5483 5493 5510 5514 5519 5528
5543 5520 5516 5505 5504 5482 5493 5475 5464 5449 5432 5417 5430 5407 5449 5380 5376 5358 5337 5320 5309 5302 5299 5296 5294 5297 5302 5307 5316 5324 5337 5348 5358 5378 5400 5423 5445 5462 5479 5489 5499 5504 5511 5521
5518 5502 5501 5500 5487 5475 5470 5468 5458 5438 5432 5440 5429 5420 5458 5407 5363 5344 5328 5315 5304 5299 5299 5296 5293 5296 5301 5306 5314 5324 5333 5342 5355 5374 5395 5415 5434 5451 5468 5479 5490 5497 5502 5509
5517 5507 5491 5481 5485 5474 5466 5466 5503 5500 5480 5498 5423 5414 5441 5376 5349 5330 5311 5302 5295 5298 5297 5296 5295 5297 5301 5307 5314 5322 5330 5340 5354 5371 5391 5407 5425 5439 5453 5464 5474 5484 5490 5496
5535 5546 5490 5469 5469 5462 5449 5442 5461 5467 5490 5473 5429 5419 5443 5362 5339 5318 5303 5294 5304 5299 5297 5296 5296 5298 5302 5307 5314 5320 5329 5338 5352 5370 5387 5401 5417 5430 5439 5450 5459 5469 5475 5483
5520 5521 5475 5462 5454 5451 5441 5449 5416 5408 5386 5394 5450 5443 5386 5363 5350 5336 5308 5307 5303 5299 5297 5296 5297 5298 5301 5306 5313 5320 5327 5337 5350 5366 5381 5394 5407 5418 5427 5436 5447 5455 5463 5471
5482 5515 5481 5458 5448 5442 5446 5426 5428 5410 5437 5471 5487 5435 5442 5375 5343 5333 5309 5306 5301 5301 5301 5301 5301 5300 5303 5306 5312 5320 5327 5337 5349 5362 5374 5386 5397 5407 5415 5423 5433 5441 5448 5457
5467 5471 5482 5458 5452 5464 5438 5435 5413 5401 5401 5426 5438 5474 5386 5357 5332 5317 5308 5305 5301 5303 5304 5305 5305 5304 5304 5308 5314 5322 5329 5338 5348 5359 5370 5380 5389 5396 5404 5412 5420 5429 5436 5443
5469 5469 5501 5478 5427 5425 5426 5427 5420 5430 5426 5395 5387 5432 5376 5350 5326 5312 5312 5305 5306 5309 5309 5309 5307 5308 5310 5314 5319 5326 5333 5341 5349 5358 5366 5374 5380 5386 5393 5402 5409 5416 5422 5428
5464 5486 5517 5494 5443 5430 5422 5409 5398 5388 5378 5405 5413 5478 5368 5347 5333 5317 5310 5307 5309 5316 5313 5312 5313 5315 5318 5321 5325 5329 5334 5341 5349 5356 5363 5369 5374 5380 5385 5392 5400 5406 5410 5413
5465 5464 5480 5532 5502 5442 5433 5410 5399 5402 5409 5419 5415 5438 5412 5386 5349 5331 5321 5313 5315 5315 5314 5317 5320 5322 5324 5329 5332 5335 5341 5346 5352 5358 5364 5368 5373 5377 5382 5385 5391 5397 5400 5405
5459 5464 5433 5444 5412 5403 5420 5413 5403 5398 5403 5425 5427 5379 5410 5386 5354 5335 5325 5324 5325 5324 5323 5322 5325 5329 5331 5334 5335 5339 5343 5347 5351 5355 5360 5363 5366 5371 5376 5380 5383 5392 5397 5398
5443 5469 5429 5445 5394 5386 5413 5416 5403 5399 5389 5377 5382 5387 5401 5363 5342 5344 5339 5334 5334 5334 5334 5332 5333 5335 5337 5339 5339 5341 5343 5346 5348 5351 5355 5357 5362 5367 5373 5376 5380 5387 5388 5389
5445 5451 5447 5506 5424 5426 5470 5443 5413 5413 5403 5423 5437 5453 5387 5388 5382 5371 5357 5345 5344 5342 5341 5341 5339 5340 5343 5342 5342 5344 5346 5346 5347 5349 5347 5351 5357 5362 5365 5370 5376 5380 5379 5380
5438 5438 5437 5478 5450 5534 5502 5404 5415 5442 5434 5414 5416 5412 5412 5407 5386 5373 5361 5362 5357 5351 5349 5347 5346 5346 5348 5350 5348 5349 5349 5348 5347 5346 5346 5350 5355 5357 5360 5365 5370 5371 5373 5375
5438 5448 5451 5465 5476 5515 5496 5434 5439 5462 5511 5453 5445 5423 5407 5386 5381 5398 5376 5366 5366 5359 5355 5351 5350 5351 5354 5352 5352 5350 5349 5348 5347 5347 5348 5352 5355 5359 5362 5364 5366 5368 5370 5369
5437 5434 5448 5440 5502 5539 5530 5468 5442 5448 5523 5460 5459 5438 5417 5416 5458 5443 5392 5380 5371 5365 5364 5364 5362 5362 5361 5360 5361 5361 5358 5355 5354 5353 5354 5355 5358 5360 5362 5363 5364 5367 5369 5369
5438 5438 5444 5443 5478 5512 5498 5470 5459 5522 5539 5466 5469 5456 5438 5457 5464 5433 5410 5396 5392 5383 5378 5376 5374 5375 5371 5366 5367 5365 5362 5360 5358 5358 5359 5359 5360 5361 5362 5364 5365 5366 5366 5365
5454 5447 5444 5441 5456 5529 5475 5468 5508 5524 5471 5477 5475 5461 5457 5454 5428 5419 5421 5412 5402 5395 5388 5388 5386 5384 5381 5377 5374 5372 5370 5364 5363 5362 5362 5361 5362 5363 5363 5362 5361 5362 5362 5360
5466 5488 5493 5490 5529 5510 5490 5511 5499 5483 5495 5476 5484 5474 5470 5452 5446 5441 5436 5428 5420 5415 5408 5400 5396 5391 5385 5381 5378 5376 5373 5367 5364 5362 5360 5360 5360 5359 5358 5359 5359 5359 5358 5359
5460 5465 5482 5489 5520 5511 5501 5506 5490 5483 5495 5494 5496 5486 5478 5477 5464 5453 5449 5440 5432 5422 5414 5406 5398 5394 5391 5386 5383 5380 5373 5369 5365 5364 5362 5360 5360 5359 5358 5358 5357 5358 5357 5355
5480 5465 5481 5491 5517 5512 5513 5514 5518 5497 5484 5489 5491 5489 5484 5479 5467 5462 5451 5442 5435 5427 5418 5411 5405 5401 5398 5392 5387 5382 5376 5370 5366 5363 5360 5359 5359 5359 5359 5358 5357 5355 5352 5351
5473 5494 5501 5535 5539 5544 5545 5528 5522 5514 5502 5497 5493 5483 5480 5479 5473 5463 5457 5450 5442 5434 5424 5415 5410 5404 5400 5394 5390 5385 5381 5376 5373 5368 5364 5364 5362 5359 5357 5355 5352 5348 5346 5344